FW2692 Weather Reports


time (UTC)temp
F
wind
direction
speed
knots
gust
knots
rain 1hr
in
rain 24hr
in
rain mn
in
humidity
%
barometer
mb
20260901214004 74 303 5.2 13.0 0.00 0.00 0.00 43 1013.2
20260901213504 74 294 5.2 13.0 0.00 0.00 0.00 42 1013.2
20260901213004 75 295 4.3 9.6 0.00 0.00 0.00 43 1013.2
20260901212504 75 295 4.3 10.4 0.00 0.00 0.00 41 1013.2
20260901212004 75 287 5.2 10.4 0.00 0.00 0.00 42 1013.2
20260901211525 75 290 5.2 13.0 0.00 0.00 0.00 41 1013.2
20260901211004 75 306 4.3 13.0 0.00 0.00 0.00 42 1013.1
20260901210504 74 313 2.6 7.8 0.00 0.00 0.00 41 1013.2
20260901210005 75 303 1.7 7.8 0.00 0.00 0.00 41 1013.3
20260901205525 74 318 2.6 7.0 0.00 0.00 0.00 41 1013.3
20260901205004 75 317 2.6 9.6 0.00 0.00 0.00 41 1013.4
20260901204504 74 311 2.6 9.6 0.00 0.00 0.00 41 1013.5
20260901204005 74 285 3.5 8.7 0.00 0.00 0.00 42 1013.6
20260901203504 74 288 4.3 8.7 0.00 0.00 0.00 42 1013.6
20260901203004 74 308 2.6 8.7 0.00 0.00 0.00 41 1013.6
20260901202504 74 316 1.7 5.2 0.00 0.00 0.00 41 1013.6
20260901202004 74 277 2.6 10.4 0.00 0.00 0.00 41 1013.7
20260901201504 74 269 3.5 10.4 0.00 0.00 0.00 42 1013.8
20260901201004 75 293 1.7 7.8 0.00 0.00 0.00 40 1013.8
20260901200526 74 327 2.6 10.4 0.00 0.00 0.00 41 1013.8
20260901200005 74 326 4.3 10.4 0.00 0.00 0.00 42 1013.9
20260901195504 74 320 2.6 10.4 0.00 0.00 0.00 42 1013.8
20260901195004 74 318 1.7 7.0 0.00 0.00 0.00 42 1013.9
20260901194504 74 285 2.6 7.0 0.00 0.00 0.00 42 1013.9
20260901194004 73 221 2.6 7.0 0.00 0.00 0.00 43 1013.9
20260901193525 73 264 2.6 7.8 0.00 0.00 0.00 43 1014.0
20260901193005 73 306 3.5 11.3 0.00 0.00 0.00 42 1014.1
20260901192504 73 318 2.6 11.3 0.00 0.00 0.00 43 1014.2
20260901192004 73 311 1.7 9.6 0.00 0.00 0.00 44 1014.2
20260901191504 72 290 3.5 8.7 0.00 0.00 0.00 44 1014.3
20260901191004 72 269 3.5 8.7 0.00 0.00 0.00 44 1014.3
20260901190525 72 266 3.5 9.6 0.00 0.00 0.00 44 1014.3
20260901190025 72 277 3.5 9.6 0.00 0.00 0.00 44 1014.4
20260901185505 73 288 2.6 7.8 0.00 0.00 0.00 43 1014.3
20260901185004 74 239 1.7 6.1 0.00 0.00 0.00 41 1014.4
20260901184504 75 157 0.9 3.5 0.00 0.00 0.00 41 1014.4
20260901184004 74 134 1.7 6.1 0.00 0.00 0.00 42 1014.4
20260901183526 75 108 3.5 8.7 0.00 0.00 0.00 41 1014.4
20260901183025 75 93 3.5 8.7 0.00 0.00 0.00 41 1014.4
20260901182504 75 82 2.6 5.2 0.00 0.00 0.00 42 1014.4
20260901182004 75 97 2.6 8.7 0.00 0.00 0.00 43 1014.4
20260901181504 74 100 2.6 8.7 0.00 0.00 0.00 44 1014.5
20260901181004 74 104 2.6 7.8 0.00 0.00 0.00 44 1014.5
20260901180525 74 105 1.7 7.0 0.00 0.00 0.00 45 1014.4
20260901180004 73 120 1.7 7.0 0.00 0.00 0.00 47 1014.5
20260901175504 72 153 1.7 6.1 0.00 0.00 0.00 49 1014.5
20260901175004 71 205 0.9 3.5 0.00 0.00 0.00 49 1014.4
20260901174504 70 240 0.9 6.1 0.00 0.00 0.00 47 1014.4
20260901174025 70 295 1.7 6.1 0.00 0.00 0.00 48 1014.4
20260901173504 69 280 2.6 6.1 0.00 0.00 0.00 48 1014.3
20260901173004 69 248 2.6 6.1 0.00 0.00 0.00 48 1014.3
20260901172525 70 229 1.7 4.3 0.00 0.00 0.00 47 1014.2
20260901172025 70 178 2.6 6.1 0.00 0.00 0.00 48 1014.2
20260901171504 70 185 3.5 8.7 0.00 0.00 0.00 50 1014.3
20260901171004 69 289 2.6 8.7 0.00 0.00 0.00 48 1014.2
20260901170525 69 251 2.6 7.8 0.00 0.00 0.00 50 1014.2
20260901170004 68 221 3.5 8.7 0.00 0.00 0.00 52 1014.2
20260901165504 68 268 5.2 13.0 0.00 0.00 0.00 55 1014.2
20260901165025 69 319 3.5 13.0 0.00 0.00 0.00 53 1014.1
20260901164525 69 49 1.7 8.7 0.00 0.00 0.00 52 1014.2
20260901164004 69 80 0.9 5.2 0.00 0.00 0.00 54 1014.2
20260901163525 69 88 1.7 4.3 0.00 0.00 0.00 55 1014.2
20260901163004 68 102 1.7 5.2 0.00 0.00 0.00 55 1014.2
20260901162504 68 92 1.7 5.2 0.00 0.00 0.00 56 1014.2
20260901162004 68 64 1.7 6.1 0.00 0.00 0.00 56 1014.1
20260901161525 67 68 1.7 6.1 0.00 0.00 0.00 58 1014.0
20260901161025 67 68 1.7 4.3 0.00 0.00 0.00 59 1014.0
20260901160525 67 70 1.7 4.3 0.00 0.00 0.00 59 1014.0
20260901160004 67 97 1.7 6.1 0.00 0.00 0.00 59 1013.9
20260901155504 66 92 1.7 6.1 0.00 0.00 0.00 60 1013.9
20260901155025 66 54 0.9 5.2 0.00 0.00 0.00 61 1013.8
20260901154504 66 54 1.7 5.2 0.00 0.00 0.00 61 1013.8
20260901154004 65 95 1.7 5.2 0.00 0.00 0.00 62 1013.8
20260901153504 65 119 1.7 6.1 0.00 0.00 0.00 63 1013.8
20260901153004 64 112 2.6 7.0 0.00 0.00 0.00 63 1013.7
20260901152504 64 101 1.7 7.0 0.00 0.00 0.00 63 1013.7
20260901152025 63 89 1.7 6.1 0.00 0.00 0.00 64 1013.7
20260901151504 63 92 2.6 7.8 0.00 0.00 0.00 65 1013.6
20260901151004 62 95 2.6 7.8 0.00 0.00 0.00 66 1013.6
20260901150525 62 98 2.6 7.8 0.00 0.00 0.00 65 1013.6
20260901150025 62 106 2.6 5.2 0.00 0.00 0.00 67 1013.5
20260901145504 61 101 2.6 5.2 0.00 0.00 0.00 67 1013.4
20260901145004 60 97 2.6 6.1 0.00 0.00 0.00 68 1013.3
20260901144504 60 99 2.6 6.1 0.00 0.00 0.00 68 1013.3
20260901144003 59 98 2.6 6.1 0.00 0.00 0.00 68 1013.2
20260901143504 59 100 2.6 6.1 0.00 0.00 0.00 67 1013.2
20260901143025 59 114 1.7 5.2 0.00 0.00 0.00 69 1013.1
20260901142525 59 127 0.9 2.6 0.00 0.00 0.00 69 1013.0
20260901142004 59 114 0.9 3.5 0.00 0.00 0.00 69 1012.9
20260901141504 59 113 1.7 3.5 0.00 0.00 0.00 68 1012.9
20260901141025 59 117 1.7 5.2 0.00 0.00 0.00 68 1012.7
20260901140504 60 169 1.7 5.2 0.00 0.00 0.00 67 1012.7
20260901140004 60 245 0.9 4.3 0.00 0.00 0.00 67 1012.6
20260901135504 60 261 0.9 2.6 0.00 0.00 0.00 67 1012.6
20260901135004 60 261 0.9 2.6 0.00 0.00 0.00 67 1012.4
20260901134504 60 261 0.0 1.7 0.00 0.00 0.00 67 1012.4
20260901134004 60 261 0.0 1.7 0.00 0.00 0.00 67 1012.3
20260901133503 60 261 0.0 1.7 0.00 0.00 0.00 67 1012.3
20260901133004 60 261 0.0 1.7 0.00 0.00 0.00 67 1012.2
20260901132503 60 261 0.0 1.7 0.00 0.00 0.00 67 1012.2
20260901132003 60 261 0.9 2.6 0.00 0.00 0.00 66 1012.1
20260901131503 60 260 0.9 2.6 0.00 0.00 0.00 66 1012.1
20260901131024 60 248 0.9 2.6 0.00 0.00 0.00 66 1012.1
20260901130503 60 245 1.7 7.0 0.00 0.00 0.00 66 1012.0
20260901130004 60 251 0.9 7.0 0.00 0.00 0.00 66 1012.1
20260901125524 60 277 0.9 3.5 0.00 0.00 0.00 67 1012.1
20260901125003 60 284 0.9 3.5 0.00 0.00 0.00 66 1012.1
20260901124504 60 261 0.9 7.8 0.00 0.00 0.00 66 1012.0
20260901124003 61 257 2.6 9.6 0.00 0.00 0.00 66 1011.9
20260901123503 61 253 2.6 9.6 0.00 0.00 0.00 66 1012.0
20260901123003 61 253 1.7 7.0 0.00 0.00 0.00 66 1012.0
20260901122503 61 249 1.7 7.0 0.00 0.00 0.00 66 1011.8
20260901122004 61 241 1.7 7.0 0.00 0.00 0.00 66 1011.9
20260901121503 60 237 1.7 6.1 0.00 0.00 0.00 66 1011.9
20260901121003 60 261 0.9 6.1 0.00 0.00 0.00 66 1011.9
20260901120503 61 291 0.9 4.3 0.00 0.00 0.00 66 1012.0
20260901120004 61 268 2.6 8.7 0.00 0.00 0.00 66 1012.0
20260901115524 61 254 3.5 8.7 0.00 0.00 0.00 66 1012.0
20260901115024 61 256 4.3 9.6 0.00 0.00 0.00 67 1011.9
20260901114503 61 259 4.3 9.6 0.00 0.00 0.00 67 1012.0
20260901114003 60 254 2.6 8.7 0.00 0.00 0.00 68 1011.9
20260901113503 60 249 1.7 7.0 0.00 0.00 0.00 68 1011.9
20260901113003 60 246 0.9 6.1 0.00 0.00 0.00 69 1011.8
20260901112503 60 196 0.0 4.3 0.00 0.00 0.00 69 1011.6
20260901112003 60 210 0.9 4.3 0.00 0.00 0.00 69 1011.5
20260901111524 60 259 0.0 7.8 0.00 0.00 0.00 68 1011.6
20260901111024 60 321 0.0 7.8 0.00 0.00 0.00 68 1011.5
20260901110503 60 293 1.7 7.8 0.00 0.00 0.00 68 1011.5
20260901110004 60 282 3.5 7.8 0.00 0.00 0.00 69 1011.6
20260901105524 60 280 2.6 7.8 0.00 0.00 0.00 70 1011.6
20260901105003 59 298 1.7 5.2 0.00 0.00 0.00 72 1011.6
20260901104503 59 309 0.9 2.6 0.00 0.00 0.00 72 1011.7
20260901104024 59 271 1.7 7.0 0.00 0.00 0.00 72 1011.6
20260901103503 59 255 1.7 7.8 0.00 0.00 0.00 71 1011.5
20260901103003 58 230 0.9 7.8 0.00 0.00 0.00 75 1011.6
20260901102503 58 130 0.0 0.9 0.00 0.00 0.00 75 1011.5
20260901102003 58 0 0.0 0.0 0.00 0.00 0.00 76 1011.4
20260901101503 58 0 0.0 0.9 0.00 0.00 0.00 75 1011.4
20260901101003 58 0 0.0 0.9 0.00 0.00 0.00 74 1011.4
20260901100503 59 0 0.0 0.0 0.00 0.00 0.00 73 1011.3
20260901100024 59 0 0.0 0.0 0.00 0.00 0.00 72 1011.2
20260901095504 60 0 0.0 0.0 0.00 0.00 0.00 70 1011.2
20260901095003 60 125 0.0 2.6 0.00 0.00 0.00 68 1011.2
20260901094503 61 147 0.0 2.6 0.00 0.00 0.00 67 1011.1
20260901094004 61 194 0.9 7.8 0.00 0.00 0.00 65 1011.1
20260901093524 61 182 2.6 7.8 0.00 0.00 0.00 64 1011.1
20260901093003 61 170 2.6 7.0 0.00 0.00 0.00 65 1011.0
20260901092504 61 179 2.6 7.0 0.00 0.00 0.00 64 1011.0
20260901092003 62 193 2.6 7.0 0.00 0.00 0.00 64 1011.0
20260901091503 62 215 1.7 7.0 0.00 0.00 0.00 64 1011.0
20260901091004 62 235 1.7 8.7 0.00 0.00 0.00 65 1011.0
20260901090503 62 247 2.6 8.7 0.00 0.00 0.00 65 1010.9
20260901090003 62 254 3.5 10.4 0.00 0.00 0.00 65 1011.0
20260901085503 62 260 2.6 10.4 0.00 0.00 0.00 66 1011.0
20260901085003 62 261 4.3 10.4 0.00 0.00 0.00 66 1011.1
20260901084504 62 258 5.2 13.0 0.00 0.00 0.00 67 1011.1
20260901084003 62 258 4.3 13.0 0.00 0.00 0.00 67 1011.1
20260901083503 62 248 3.5 7.8 0.00 0.00 0.00 67 1011.0
20260901083003 62 243 4.3 8.7 0.00 0.00 0.00 67 1011.0
20260901082503 62 243 4.3 8.7 0.00 0.00 0.00 68 1011.0
20260901082003 62 243 4.3 8.7 0.00 0.00 0.00 68 1011.0
20260901081524 62 245 3.5 9.6 0.00 0.00 0.00 68 1011.1
20260901081003 62 248 2.6 9.6 0.00 0.00 0.00 68 1011.1
20260901080503 62 262 1.7 6.1 0.00 0.00 0.00 68 1011.1
20260901080003 62 256 3.5 8.7 0.00 0.00 0.00 68 1011.0
20260901075503 62 252 4.3 8.7 0.00 0.00 0.00 68 1011.0
20260901075003 62 250 3.5 8.7 0.00 0.00 0.00 68 1010.9
20260901074504 62 252 2.6 9.6 0.00 0.00 0.00 69 1011.0
20260901074003 62 262 3.5 11.3 0.00 0.00 0.00 68 1011.0
20260901073503 62 272 2.6 11.3 0.00 0.00 0.00 68 1011.0
20260901073024 62 275 2.6 8.7 0.00 0.00 0.00 68 1011.0
20260901072503 62 285 3.5 8.7 0.00 0.00 0.00 68 1011.0
20260901072003 62 285 4.3 9.6 0.00 0.00 0.00 68 1010.9
20260901071503 62 285 5.2 14.8 0.00 0.00 0.00 68 1010.9
20260901071003 62 305 5.2 14.8 0.00 0.00 0.00 68 1010.8
20260901070503 62 299 5.2 9.6 0.00 0.00 0.00 69 1010.9
20260901070004 62 274 5.2 13.0 0.00 0.00 0.00 69 1010.8
20260901065503 62 278 5.2 13.0 0.00 0.00 0.00 69 1010.8
20260901065003 62 281 5.2 12.2 0.00 0.00 0.00 69 1010.8
20260901064503 62 278 6.1 13.9 0.00 0.00 0.00 69 1010.9
20260901064003 62 269 7.8 15.6 0.00 0.00 0.00 69 1010.9
20260901063503 62 263 8.7 15.6 0.00 0.00 0.00 69 1010.8
20260901063024 62 265 8.7 15.6 0.00 0.00 0.00 69 1010.9
20260901062504 62 267 8.7 17.4 0.00 0.00 0.00 69 1010.9
20260901062003 62 265 8.7 17.4 0.00 0.00 0.00 69 1010.9
20260901061503 62 262 8.7 15.6 0.00 0.00 0.00 69 1010.9
20260901061003 62 265 8.7 15.6 0.00 0.00 0.00 69 1010.9
20260901060524 62 265 8.7 13.9 0.00 0.00 0.00 69 1010.9
20260901060006 63 263 8.7 15.6 0.00 0.00 0.00 68 1010.8
20260901055506 63 265 8.7 15.6 0.00 0.00 0.00 68 1010.8
20260901055006 63 263 7.0 14.8 0.00 0.00 0.00 68 1010.8
20260901054506 62 265 6.1 14.8 0.00 0.00 0.00 68 1010.8
20260901054006 63 273 6.1 11.3 0.00 0.00 0.00 68 1010.8
20260901053506 63 271 6.1 13.9 0.00 0.00 0.00 68 1010.7
20260901053006 63 270 7.8 14.8 0.00 0.00 0.00 68 1010.6
20260901052527 62 270 8.7 14.8 0.00 0.00 0.00 69 1010.6
20260901052006 62 269 7.8 13.9 0.00 0.00 0.00 69 1010.6
20260901051506 62 273 7.8 14.8 0.00 0.00 0.00 69 1010.6
20260901051006 62 273 8.7 15.6 0.00 0.00 0.00 69 1010.6
20260901050506 62 271 8.7 15.6 0.00 0.00 0.00 69 1010.5
20260901050006 63 272 7.8 13.9 0.00 0.00 0.00 69 1010.5
20260901045527 63 268 7.8 13.9 0.00 0.00 0.00 68 1010.4
20260901045027 63 266 7.8 14.8 0.00 0.00 0.00 68 1010.4
20260901044507 63 263 8.7 16.5 0.00 0.00 0.00 68 1010.3
20260901044027 63 259 8.7 16.5 0.00 0.00 0.00 68 1010.3
20260901043527 63 259 7.8 14.8 0.00 0.00 0.00 68 1010.4
20260901043006 63 260 7.8 13.0 0.00 0.00 0.00 68 1010.2
20260901042506 63 262 8.7 16.5 0.00 0.00 0.00 68 1010.2
20260901042027 63 264 9.6 16.5 0.00 0.00 0.00 68 1010.1
20260901041527 63 264 8.7 16.5 0.00 0.00 0.00 68 1010.1
20260901041027 64 260 8.7 14.8 0.00 0.00 0.00 67 1010.2
20260901040506 64 259 8.7 15.6 0.00 0.00 0.00 67 1010.1
20260901040027 64 260 8.7 16.5 0.00 0.00 0.00 67 1010.1
20260901035506 64 262 7.0 16.5 0.00 0.00 0.00 67 1010.0
20260901035006 64 270 4.3 13.9 0.00 0.00 0.00 66 1010.0
20260901034527 64 266 5.2 14.8 0.00 0.00 0.00 66 1009.9
20260901034006 64 252 7.8 14.8 0.00 0.00 0.00 66 1009.7
20260901033506 64 251 8.7 14.8 0.00 0.00 0.00 66 1009.7
20260901033026 65 264 6.1 14.8 0.00 0.00 0.00 65 1009.6
20260901032506 65 272 5.2 13.0 0.00 0.00 0.00 64 1009.5
20260901032006 65 262 7.0 14.8 0.00 0.00 0.00 64 1009.4
20260901031505 65 262 7.8 14.8 0.00 0.00 0.00 64 1009.3
20260901031006 65 262 7.0 14.8 0.00 0.00 0.00 63 1009.2
20260901030505 65 260 7.8 15.6 0.00 0.00 0.00 63 1009.2
20260901030006 66 266 8.7 15.6 0.00 0.00 0.00 63 1009.2
20260901025506 66 272 8.7 14.8 0.00 0.00 0.00 62 1009.2
20260901025006 66 270 7.8 13.9 0.00 0.00 0.00 62 1009.0
20260901024527 66 272 7.0 14.8 0.00 0.00 0.00 61 1009.1
20260901024006 67 278 6.1 14.8 0.00 0.00 0.00 60 1009.2
20260901023526 67 288 5.2 11.3 0.00 0.00 0.00 60 1009.0
20260901023005 68 299 6.1 12.2 0.00 0.00 0.00 59 1008.9
20260901022506 68 307 6.1 12.2 0.00 0.00 0.00 58 1009.0
20260901022026 69 308 5.2 12.2 0.00 0.00 0.00 58 1008.9
20260901021506 70 304 3.5 10.4 0.00 0.00 0.00 57 1008.9
20260901021026 70 283 2.6 10.4 0.00 0.00 0.00 55 1009.0
20260901020506 71 256 1.7 8.7 0.00 0.00 0.00 55 1008.9
20260901020026 71 261 2.6 10.4 0.00 0.00 0.00 55 1008.8
20260901015506 71 259 4.3 11.3 0.00 0.00 0.00 55 1008.8
20260901015005 71 255 4.3 11.3 0.00 0.00 0.00 54 1008.9
20260901014506 71 256 5.2 12.2 0.00 0.00 0.00 54 1008.8
20260901014005 72 256 5.2 12.2 0.00 0.00 0.00 53 1008.8
20260901013506 73 255 6.1 13.9 0.00 0.00 0.00 52 1008.8
20260901013026 73 257 7.0 13.9 0.00 0.00 0.00 52 1008.7
20260901012506 73 253 7.0 14.8 0.00 0.00 0.00 52 1008.8
20260901012005 74 252 5.2 14.8 0.00 0.00 0.00 50 1008.8
20260901011505 75 253 4.3 11.3 0.00 0.00 0.00 48 1008.7
20260901011005 75 254 5.2 11.3 0.00 0.00 0.00 48 1008.7
20260901010505 75 253 6.1 11.3 0.00 0.00 0.00 48 1008.5
20260901010005 76 249 7.0 11.3 0.00 0.00 0.00 48 1008.5
20260901005505 76 250 7.0 11.3 0.00 0.00 0.00 47 1008.5
20260901005005 76 254 6.1 11.3 0.00 0.00 0.00 47 1008.4
20260901004505 77 258 5.2 10.4 0.00 0.00 0.00 46 1008.4
20260901004005 77 257 6.1 10.4 0.00 0.00 0.00 46 1008.4
20260901003505 77 252 7.0 12.2 0.00 0.00 0.00 46 1008.5
20260901003026 78 245 5.2 12.2 0.00 0.00 0.00 44 1008.5
20260901002526 79 243 5.2 13.0 0.00 0.00 0.00 44 1008.4
20260901002005 78 244 5.2 13.0 0.00 0.00 0.00 44 1008.6
20260901001505 78 247 6.1 14.8 0.00 0.00 0.00 45 1008.6
20260901001005 78 249 7.8 14.8 0.00 0.00 0.00 45 1008.6
20260901000505 78 246 7.8 13.0 0.00 0.00 0.00 44 1008.6
20260901000026 78 250 7.8 13.9 0.00 0.00 0.00 44 1008.5
20260831235505 79 252 7.8 14.8 0.00 0.00 0.00 43 1008.5
20260831235005 79 251 7.0 14.8 0.00 0.00 0.00 43 1008.5
20260831234505 79 251 6.1 12.2 0.00 0.00 0.00 43 1008.5
20260831234005 80 249 7.0 13.9 0.00 0.00 0.00 43 1008.6
20260831233526 80 252 6.1 13.9 0.00 0.00 0.00 42 1008.7
20260831233005 80 255 6.1 12.2 0.00 0.00 0.00 42 1008.7
20260831232505 80 255 7.0 13.0 0.00 0.00 0.00 42 1008.7
20260831232005 80 256 6.1 13.0 0.00 0.00 0.00 42 1008.7
20260831231505 80 261 6.1 13.0 0.00 0.00 0.00 41 1008.8
20260831231005 81 266 4.3 12.2 0.00 0.00 0.00 41 1008.8
20260831230505 80 272 4.3 10.4 0.00 0.00 0.00 42 1008.8
20260831230005 80 265 6.1 11.3 0.00 0.00 0.00 42 1008.8
20260831225526 79 252 7.0 13.0 0.00 0.00 0.00 43 1008.8
20260831225005 79 249 7.8 13.0 0.00 0.00 0.00 43 1008.9
20260831224505 79 250 7.8 12.2 0.00 0.00 0.00 43 1008.9
20260831224005 79 252 7.0 12.2 0.00 0.00 0.00 42 1009.0
20260831223505 80 251 5.2 11.3 0.00 0.00 0.00 42 1009.0
20260831223005 80 253 5.2 10.4 0.00 0.00 0.00 42 1008.9
20260831222505 79 253 5.2 10.4 0.00 0.00 0.00 42 1009.0
20260831222005 79 252 5.2 10.4 0.00 0.00 0.00 42 1009.1
20260831221505 79 255 6.1 10.4 0.00 0.00 0.00 42 1009.2
20260831221005 79 257 7.0 12.2 0.00 0.00 0.00 43 1009.2
20260831220505 79 259 7.0 12.2 0.00 0.00 0.00 42 1009.4
20260831220005 79 258 7.0 12.2 0.00 0.00 0.00 43 1009.4
20260831215505 78 255 6.1 12.2 0.00 0.00 0.00 44 1009.5
20260831215005 79 251 6.1 16.5 0.00 0.00 0.00 43 1009.5
20260831214505 78 250 7.0 16.5 0.00 0.00 0.00 43 1009.6